Tracking 20370 objects as of 20-Feb-2020
HD Live streaming from Space Station
objects crossing your sky now
Track the group of recently launched Starlink satellites

RADUGA 1-4

Track RADUGA 1-4 now!
RADUGA 1-4 is classified as:


NORAD ID: 25642
Int'l Code: 1999-010A
Perigee: 35,770.7 km
Apogee: 35,812.4 km
Inclination: 14.8 °
Period: 1,436.0 minutes
Semi major axis: 42162 km
RCS: 12.5893 m2 (large)
Launch date: February 28, 1999
Source: Commonwealth of Independent States (former USSR) (CIS)
Launch site: TYURATAM MISSILE AND SPACE COMPLEX (TTMTR)

Military communication.
aabbcc
Your satellite tracking list
Your tracking list is empty




NASA's NSSDC Master Catalog

Two Line Element Set (TLE):
1 25642U 99010A   20050.55605003  .00000112  00000-0  00000+0 0  9992
2 25642  14.8249  21.3483 0004939 288.1662  74.6596  1.00279625 76819
Source of the keplerian elements: AFSPC